Lapse_Rate
5.8 6.0 5.9 5.9 5.7 5.2 5.7 5.9 6.1 5.9 6.1 6.1 6.3 6.4 6.4 6.3 6.6 6.3 6.3 6.6 6.0 5.4 5.8 6.3 6.2 6.7 6.8 6.1 6.1 6.4 6.7 6.7 6.2 6.4 6.1 6.0 6.0 6.1 6.1 5.7 5.8 6.1 5.9
6.1 5.8 5.7 6.0 6.0 5.7 5.5 6.1 6.5 6.5 6.2 6.0 6.2 6.0 6.0 6.1 5.9 6.2 6.2 6.2 6.2 5.9 6.1 6.0 6.3 6.4 6.0 6.0 6.1 6.3 6.1 6.0 5.9 6.5 6.0 5.4 5.6 5.9 5.9 6.4 5.6 5.6 5.3
6.3 6.1 5.8 6.0 5.8 5.6 5.6 6.0 6.1 6.2 6.2 6.0 6.0 6.2 6.3 6.3 6.1 6.5 6.4 6.2 5.7 5.8 6.2 5.9 5.8 5.9 6.1 6.2 6.3 6.1 5.9 5.7 5.9 5.8 6.0 5.8 5.8 5.5 5.8 5.7 5.8 5.3 5.2
5.7 6.1 6.0 5.9 5.8 5.5 5.5 5.4 5.9 5.9 6.1 6.3 6.0 6.3 6.2 6.3 6.3 6.2 5.7 5.8 5.8 5.8 5.9 5.9 5.7 5.9 6.1 6.1 6.0 5.9 5.9 5.7 5.9 5.6 5.8 5.9 6.1 5.9 5.7 5.8 5.4 5.5 5.6
5.7 6.3 6.6 6.4 6.2 5.9 5.7 5.9 5.8 5.6 6.0 6.1 6.3 5.9 6.0 6.1 6.0 5.9 6.2 6.1 5.9 6.0 6.0 5.9 5.7 6.0 6.1 6.0 6.0 5.9 5.8 5.9 5.9 5.7 5.5 5.4 5.6 5.6 5.8 5.6 5.5 5.2 5.4
6.1 6.3 6.4 6.4 6.5 6.5 6.4 6.0 6.0 5.6 6.0 6.1 6.0 6.1 6.2 6.0 6.2 6.0 6.1 6.1 6.0 6.3 6.6 6.3 6.1 6.3 6.1 5.7 6.0 6.1 5.9 5.9 5.7 5.7 5.7 5.5 5.4 5.5 5.5 5.5 5.6 5.4 5.2
6.5 6.5 6.6 6.6 6.6 6.5 6.3 6.3 5.9 5.7 5.8 6.3 6.2 6.2 6.3 6.2 6.1 5.9 5.8 5.9 5.9 6.3 6.4 6.4 6.3 6.1 5.9 5.7 5.8 5.9 5.8 5.9 5.8 5.7 5.8 5.7 5.6 5.5 5.6 5.7 5.5 5.4 5.4
6.5 6.4 6.7 6.4 6.5 6.7 6.4 6.6 6.0 5.8 6.0 5.9 6.3 6.3 6.2 6.3 6.0 6.2 6.1 5.8 6.1 6.0 6.2 6.5 6.3 5.9 5.8 5.6 5.6 5.6 5.7 5.9 5.9 5.7 5.6 5.6 5.7 5.5 5.7 5.8 5.5 5.6 5.5
6.5 6.5 6.7 6.8 6.5 6.5 6.4 6.4 6.3 5.7 6.2 6.0 6.4 6.6 6.1 6.2 5.9 5.6 5.8 5.9 5.8 5.6 6.0 6.1 6.2 6.0 5.8 5.8 5.5 5.3 5.6 6.0 6.0 6.0 6.0 5.8 5.7 5.5 5.7 5.6 5.3 5.3 5.6
6.4 6.8 7.0 6.8 6.5 6.5 6.8 6.2 6.4 6.4 5.9 5.8 6.0 6.5 6.3 6.1 6.1 5.7 5.4 5.6 5.8 5.8 5.7 5.7 5.8 5.8 5.7 5.9 6.0 5.6 5.4 5.8 5.9 5.9 5.9 5.9 5.8 5.7 5.8 5.7 5.5 5.5 5.5
6.3 6.6 6.8 6.4 6.3 6.3 6.5 6.8 6.5 6.4 6.0 6.1 6.0 5.9 6.5 5.9 5.8 5.8 5.9 5.8 5.6 5.6 5.6 5.6 6.0 6.3 6.0 5.9 5.8 5.8 5.6 5.6 5.9 6.0 6.0 6.0 5.8 5.9 5.8 5.9 5.9 5.8 5.9
6.7 7.0 6.9 6.1 5.9 5.9 6.1 6.1 6.6 6.4 6.2 6.1 6.0 6.2 6.1 6.4 6.0 5.8 5.7 6.1 6.0 5.9 5.8 5.7 5.7 5.9 6.1 5.9 5.9 5.9 5.8 5.6 5.8 6.0 6.0 5.9 5.9 6.0 5.9 5.9 6.0 6.0 5.9
6.9 6.6 6.6 6.4 5.9 5.9 5.7 6.0 6.1 5.6 5.6 6.3 6.0 6.0 5.9 6.2 6.7 6.4 6.1 6.0 5.9 5.9 5.7 5.9 5.9 6.0 6.2 5.9 6.0 6.0 5.8 5.8 5.8 5.8 5.8 5.9 5.8 6.0 5.8 5.6 6.0 6.0 5.9
6.9 6.5 6.6 6.4 6.0 6.4 6.0 5.6 5.3 5.5 5.9 5.8 6.0 6.0 5.5 5.8 6.3 6.6 6.2 6.3 6.5 6.2 6.2 6.0 6.0 6.1 6.2 6.0 6.2 6.2 6.1 6.0 5.9 5.8 6.0 6.0 5.8 5.9 5.8 5.7 5.9 6.0 5.9
6.8 6.6 6.8 6.7 6.5 6.5 6.4 6.3 5.8 5.8 5.8 5.8 5.9 5.1 4.9 5.2 6.0 6.7 6.6 6.1 6.0 6.2 6.5 6.3 6.0 6.1 6.2 6.1 5.8 5.8 6.0 6.2 6.0 6.0 6.1 5.9 5.9 5.8 5.9 5.8 5.8 5.8 5.9
7.0 6.9 6.9 6.9 6.8 6.7 6.7 6.7 6.4 6.1 5.9 5.5 5.4 5.1 5.1 5.1 5.6 6.2 6.5 6.3 6.1 6.0 6.0 6.1 6.2 6.2 5.9 5.8 5.9 6.0 6.1 6.2 6.2 6.2 6.3 6.1 5.9 5.8 5.8 5.8 5.7 5.7 5.7
7.1 7.1 7.0 6.9 6.6 6.5 6.5 6.7 6.8 6.6 6.3 5.9 5.5 5.5 5.8 6.3 6.0 6.0 5.9 6.1 5.9 5.9 6.2 6.5 6.2 5.9 5.9 6.0 6.1 6.2 6.1 6.0 6.2 6.2 6.2 6.2 6.1 5.9 5.7 5.6 5.7 5.6 5.5
6.8 7.1 6.9 7.0 6.9 6.6 6.4 6.5 6.6 6.5 6.4 6.4 6.3 5.6 5.4 5.9 6.0 6.0 6.1 6.3 6.2 6.2 6.1 6.1 6.4 6.1 6.2 6.1 6.3 6.3 6.3 6.0 6.0 6.1 6.2 6.2 6.2 5.9 5.7 5.6 5.6 5.6 5.5
6.9 6.9 6.8 6.9 6.9 6.8 6.6 6.4 6.4 6.2 6.0 6.0 6.4 6.5 6.2 5.9 5.5 5.6 5.8 6.1 6.3 5.9 6.1 6.2 6.1 6.2 6.2 5.9 6.1 6.0 6.0 6.0 5.9 5.8 5.9 5.9 6.1 6.0 5.7 5.7 5.5 5.4 5.5
6.9 6.9 7.0 6.9 6.8 6.9 6.8 6.8 6.6 6.5 6.3 5.9 5.5 5.8 6.0 6.0 5.8 5.6 5.7 5.7 5.8 5.7 5.8 5.9 6.2 6.4 6.3 6.1 6.1 6.1 6.0 6.0 5.9 5.9 6.0 5.9 5.8 5.9 6.0 5.9 5.8 5.5 5.4
7.2 7.0 7.0 6.7 6.7 6.7 6.7 6.5 6.5 6.6 6.7 6.5 6.1 5.9 6.0 6.1 6.2 6.0 5.9 5.6 5.7 5.3 5.6 5.5 5.8 5.7 6.0 6.2 6.1 5.8 5.9 5.9 6.0 6.0 6.2 6.2 5.8 5.6 5.6 5.6 5.6 5.5 5.3
7.5 7.2 7.0 6.8 6.7 6.7 6.7 6.5 6.5 6.6 6.7 6.5 6.3 6.2 6.1 5.9 5.9 6.1 6.1 6.0 5.6 5.6 5.5 5.5 5.5 5.8 6.0 5.9 6.0 5.9 5.5 5.8 5.7 5.7 5.8 5.7 5.4 5.3 5.2 5.4 5.5 5.5 5.5
7.5 7.4 7.1 6.7 6.6 6.5 6.4 6.2 6.2 6.3 6.6 6.5 6.4 6.2 6.2 6.0 5.8 5.8 6.0 6.0 5.9 5.8 5.8 5.8 5.8 5.6 5.5 5.5 5.7 5.8 5.6 5.5 5.6 5.7 5.8 5.6 5.5 5.3 5.4 5.5 5.5 5.3 5.3
7.5 7.1 6.9 7.1 7.1 6.6 6.5 6.5 6.2 6.3 6.4 6.7 6.6 6.4 6.2 6.0 5.8 5.8 5.8 5.9 6.0 6.0 6.0 6.0 6.0 5.9 5.9 5.7 5.5 5.5 5.5 5.4 5.5 5.5 5.5 5.5 5.5 5.6 5.4 5.3 5.3 5.3 4.6
7.3 7.2 7.3 7.0 6.7 6.6 6.5 6.4 6.4 6.1 5.9 6.2 6.6 6.5 6.1 6.1 5.9 5.8 5.7 5.7 5.8 5.9 5.9 5.9 5.9 5.9 5.9 5.9 5.6 5.6 5.4 5.2 5.1 5.2 5.3 5.5 5.4 5.4 5.4 5.2 5.1 5.0 4.5
7.6 7.4 6.9 6.7 6.6 6.4 6.5 6.4 6.2 6.0 5.9 5.9 6.1 6.2 6.0 5.8 5.7 5.5 5.4 5.4 5.5 5.5 5.6 5.5 5.5 5.7 5.7 5.7 5.9 5.7 5.5 5.3 5.2 5.1 5.2 5.3 5.2 5.2 5.3 5.0 4.7 4.8 4.7
Wind_Speed
7 7 7 16 16 15 13 13 10 7 5 2 2 2 3 3 2 5 11 14 13 13 9 4 1 3 2 1 1 1 2 0 1 2 4 2 2 4 4 3 5 5 11
7 5 6 11 17 16 14 13 12 7 6 4 3 2 3 3 2 1 8 13 14 13 8 3 0 2 3 3 3 2 2 1 2 1 2 3 2 3 3 1 6 5 3
14 7 7 13 14 16 15 15 14 11 7 7 2 2 3 2 2 1 2 3 8 11 7 5 3 0 1 2 1 1 1 1 2 0 3 1 1 1 2 3 2 5 3
12 7 9 10 12 12 9 10 9 10 8 7 4 4 3 3 3 2 2 3 8 9 9 8 6 2 2 3 2 1 2 2 1 2 1 1 3 1 3 1 3 1 2
16 14 10 13 8 7 7 6 6 7 7 7 6 5 3 2 1 1 4 4 5 10 12 10 7 5 3 3 4 2 2 1 2 2 1 1 3 2 2 1 3 1 2
12 11 11 9 10 6 6 6 8 7 8 7 7 7 7 6 4 3 3 3 3 4 8 9 8 6 4 5 4 2 2 1 1 2 1 2 1 1 2 1 2 0 3
12 10 13 11 8 9 7 6 7 10 8 8 7 7 7 7 7 6 4 5 3 2 5 4 4 3 5 6 4 4 3 2 2 1 1 2 1 1 2 2 1 2 2
11 13 13 6 5 6 8 8 7 9 9 9 9 7 8 5 5 6 5 4 4 4 4 6 6 7 7 6 4 3 3 2 3 2 2 1 2 2 3 3 3 2 3
13 10 6 13 10 10 8 8 6 6 11 13 8 8 8 7 7 8 5 4 4 4 5 6 6 5 5 6 5 4 4 3 2 3 3 2 2 2 2 2 3 4 1
13 9 9 9 10 10 7 9 7 9 8 9 8 9 9 8 8 6 6 6 6 5 6 7 9 7 6 6 5 4 4 4 3 3 3 2 1 1 2 2 2 2 3
11 10 8 7 5 5 8 7 6 7 7 6 4 6 7 8 6 6 6 6 6 7 7 8 7 7 6 5 6 7 6 5 5 3 4 5 2 2 1 1 1 2 2
8 10 11 11 7 7 8 6 5 5 6 5 2 5 3 7 9 8 7 6 7 7 9 6 6 6 6 6 7 7 6 6 5 6 4 6 3 1 2 3 3 1 2
8 6 6 7 9 8 8 6 6 5 5 7 5 5 7 6 10 11 10 9 10 9 7 7 7 7 7 6 6 7 7 6 6 6 6 6 5 4 3 2 3 3 1
10 8 6 6 5 8 10 10 8 6 6 4 3 10 8 6 5 10 11 11 12 11 9 7 7 8 8 7 7 6 6 6 6 6 6 6 6 6 6 5 5 4 3
12 12 8 7 6 7 8 7 6 7 7 7 10 11 10 7 3 5 6 8 8 11 12 10 9 8 8 7 7 6 7 6 6 6 6 6 7 8 8 4 5 6 4
11 8 8 9 8 8 9 9 9 8 6 6 5 6 6 7 6 6 6 6 7 8 10 11 11 11 9 12 12 9 6 7 7 7 6 5 6 5 3 3 4 6 5
12 9 8 8 7 7 7 9 10 6 8 9 9 8 6 6 5 7 3 7 6 8 10 11 11 11 10 13 14 15 7 7 8 8 6 5 4 6 5 8 7 7 5
13 8 8 7 6 6 6 6 6 7 7 7 9 7 6 6 9 7 5 6 5 8 7 9 9 10 9 14 16 16 9 7 8 9 8 8 8 7 8 6 5 5 5
12 8 8 7 6 7 6 6 3 4 4 5 6 5 5 8 10 11 9 9 5 7 10 8 10 9 10 14 16 9 6 7 9 8 8 8 9 13 13 9 7 5 3
16 14 9 8 8 4 6 6 2 3 2 3 4 5 4 1 2 3 5 5 3 4 3 6 5 6 8 7 13 11 7 9 7 6 6 9 11 17 17 11 9 7 5
15 13 11 8 8 7 6 4 3 2 1 5 5 5 4 3 3 2 2 2 2 2 2 2 1 2 4 6 8 10 6 8 7 7 5 5 13 16 17 13 10 8 9
14 14 12 9 7 8 8 5 5 1 3 5 5 5 4 3 3 3 3 3 3 3 2 4 3 1 2 6 2 6 7 6 6 8 6 6 10 12 15 13 12 16 12
14 12 12 9 5 7 8 7 5 2 3 3 6 4 5 5 4 4 3 2 3 2 2 1 1 1 2 3 6 6 9 10 5 4 7 14 15 14 11 12 17 15 7
10 8 11 10 8 6 7 7 7 4 4 3 4 4 5 5 4 3 3 2 2 2 1 1 0 1 2 3 3 2 2 2 4 7 6 7 6 5 9 10 10 7 7
7 11 11 11 11 8 7 7 7 7 5 4 3 4 4 5 4 4 2 2 2 2 1 1 0 1 2 2 3 1 1 2 2 8 5 5 3 5 6 7 5 7 6
6 7 8 11 12 10 9 8 7 7 6 5 4 4 3 3 3 3 3 9 6 8 10 8 5 2 4 5 4 7 11 11 8 5 6 5 5 5 5 5 7 6 7
Wind_Direction
223 186 181 193 184 185 188 196 200 181 151 138 173 131 193 250 258 232 200 178 196 200 209 227 319 189 251 357 24 31 22 124 181 50 323 354 359 307 284 247 100 123 189
190 210 181 169 187 183 193 199 201 166 177 170 186 178 148 243 231 234 181 186 183 206 206 177 347 50 61 359 5 51 329 311 122 138 60 0 16 318 315 98 100 214 182
183 197 188 170 181 185 182 187 185 175 185 181 155 64 56 80 22 33 249 222 200 207 183 188 187 71 7 316 307 340 62 15 305 346 145 69 293 330 290 296 190 222 205
186 171 185 175 174 185 180 172 169 176 183 171 176 139 168 172 225 197 203 243 225 207 198 189 181 191 250 329 301 242 208 146 14 351 355 119 171 155 345 19 281 310 211
188 185 187 190 162 140 162 166 173 176 185 175 172 175 172 240 210 252 252 228 228 218 204 196 182 195 189 244 252 247 189 196 135 116 346 304 23 84 127 299 330 262 161
196 176 184 167 191 153 154 155 173 206 186 183 185 183 191 189 186 207 221 213 234 227 227 191 191 187 184 212 215 219 201 221 206 139 122 109 101 299 125 147 264 153 27
193 182 185 182 162 180 158 166 175 205 207 187 185 183 198 200 196 201 218 192 209 236 236 196 195 196 205 213 199 201 219 192 206 190 163 149 220 173 175 155 256 92 13
179 186 192 178 204 199 198 182 184 199 201 204 195 183 192 198 222 214 213 212 212 219 227 210 202 204 214 229 212 201 223 208 225 238 214 188 232 220 183 186 138 30 43
187 189 171 158 195 199 187 191 202 206 200 206 207 193 183 186 211 233 208 214 224 216 215 197 207 215 226 231 215 209 216 195 208 243 249 238 227 275 278 190 156 148 140
184 179 167 162 182 205 212 222 190 216 222 207 205 223 194 189 200 211 222 220 224 210 186 196 196 193 208 230 235 228 225 195 226 238 222 220 238 283 308 82 135 123 143
171 173 179 166 175 177 204 227 143 135 109 63 342 234 218 196 200 211 222 204 210 203 208 207 193 199 219 237 213 221 201 208 207 227 221 261 229 253 277 83 121 152 150
175 170 182 154 145 185 183 197 171 131 146 173 161 299 244 239 200 208 213 181 207 208 211 211 206 211 221 234 205 212 199 211 222 238 238 244 232 64 185 146 119 99 169
175 138 138 168 162 178 177 179 185 189 159 155 152 246 274 216 232 209 208 181 203 222 223 200 208 221 230 227 226 206 208 211 217 220 226 240 220 224 192 187 159 152 154
141 164 185 202 197 187 177 188 188 193 165 187 180 226 234 208 231 241 211 198 197 205 218 222 215 217 229 224 218 219 217 211 225 225 219 234 213 217 204 194 181 172 159
144 154 166 143 142 157 191 191 190 184 179 187 212 220 240 219 208 255 232 221 190 207 211 216 224 228 224 227 218 217 220 217 229 238 228 228 213 219 206 185 186 170 163
169 165 160 138 144 166 188 191 207 209 191 223 219 218 223 257 233 227 203 189 212 212 209 209 211 215 228 223 212 204 209 215 223 233 227 176 159 164 213 181 238 191 168
169 168 158 153 154 163 151 181 201 186 194 213 222 220 212 250 260 255 235 238 229 213 211 218 213 217 218 217 217 218 215 216 220 221 205 195 183 155 138 121 110 77 64
157 159 148 148 154 156 151 162 167 182 199 215 232 232 243 269 268 249 226 252 253 255 232 236 225 220 222 215 220 223 218 220 227 218 203 193 174 176 156 142 126 96 68
148 150 144 145 147 154 154 143 173 192 177 183 190 213 220 239 253 268 267 261 253 253 240 217 218 219 231 214 220 208 217 220 224 221 209 192 179 174 164 149 139 129 100
138 139 135 130 131 151 140 134 160 89 91 136 146 127 114 106 141 226 222 226 225 243 264 253 236 241 249 244 225 197 211 223 219 197 195 217 184 167 167 158 157 154 177
143 136 135 142 152 149 135 130 107 51 282 122 106 87 66 47 44 357 15 319 280 226 254 278 141 200 248 243 221 230 239 222 208 192 192 204 176 167 169 161 170 179 157
135 134 136 148 158 136 120 117 97 19 48 119 114 113 86 39 16 53 26 26 5 350 222 181 186 250 9 18 260 218 211 268 221 208 182 181 187 178 165 170 169 156 153
146 147 149 144 152 134 132 131 160 144 80 152 137 137 107 77 34 29 24 18 11 23 40 144 168 28 351 336 348 298 249 241 249 241 192 169 179 182 171 177 163 157 154
150 150 142 148 155 153 145 144 147 127 114 22 146 114 88 81 51 38 18 22 12 38 70 95 93 290 317 323 327 317 307 212 156 134 140 169 160 196 154 147 149 151 153
154 158 157 157 161 156 159 159 153 139 128 120 138 127 114 103 97 78 31 12 64 315 50 73 59 245 289 290 298 160 75 83 112 120 112 118 124 135 138 123 106 98 98
152 153 156 153 160 168 169 171 160 151 150 147 134 154 132 134 133 115 88 55 36 32 33 35 37 4 36 75 78 97 101 94 91 80 105 97 100 93 80 57 99 101 109